Weather History for Nassau, Bahamas

Change the Weather History Date:

Friday, November 9, 2012

  Actual Average Record
Temperature  
Mean Temperature 71 °F -  
Max Temperature 78 °F 81 °F 87 °F (2003)
Min Temperature 64 °F 67 °F 64 °F (1997)
Cooling Degree Days 6    
Growing Degree Days 21 (Base 50)    
Moisture  
Dew Point 55 °F    
Average Humidity 53    
Maximum Humidity 64    
Minimum Humidity 37    
Precipitation  
Precipitation 0.00 in 0.07 in - ()
Sea Level Pressure  
Sea Level Pressure 30.11 in    
Wind  
Wind Speed 8 mph ()    
Max Wind Speed 17 mph    
Max Gust Speed -    
Visibility 6.9 miles    
Events      
Averages and records for this station are not official NWS values.
T = Trace of Precipitation, MM = Missing Value Source: Averaged Metar Reports

Daily Weather History Graph

Daily Weather History Graph

Search for Another Location

Airport:

Trip Planner

Search our weather history database for the weather conditions in past years. The results will help you decide how hot, cold, wet, or windy it might be!

Date:

Astronomy

Nov. 09, 2012 Rise Set
Actual Time 6:22 AM EST 5:24 PM EST
Civil Twilight 5:58 AM EST 5:48 PM EST
Nautical Twilight 5:31 AM EST 6:15 PM EST
Astronomical Twilight 5:04 AM EST 6:42 PM EST
Moon 1:47 AM EST (11/9) 2:11 PM EST (11/9)
Length of Visible Light 11h 49m
Length of Day
11h 01m
Waning Crescent, 23% of the Moon is Illuminated
Nov 9
Waning Crescent
Nov 13
New
Nov 20
First Quarter
Nov 28
Full
Dec 6
Last Quarter

Hourly Weather History & Observations

Time (EST) Temp. Dew Point Humidity Pressure Visibility Wind Dir Wind Speed Gust Speed Precip Events Conditions
12:00 AM 68.0 °F 51.8 °F 56% 30.06 in 6.2 mi NNW 3.5 mph - N/A   Partly Cloudy
1:00 AM 69 °F 56 °F 54% 30.06 in 9 mi NNW 5.8 mph - -   Scattered Clouds
1:00 AM 68.0 °F 55.4 °F 64% 30.06 in 6.2 mi NNW 5.8 mph - N/A   Partly Cloudy
2:00 AM 69.8 °F 55.4 °F 60% 30.04 in 6.2 mi NNW 6.9 mph - N/A   Scattered Clouds
3:00 AM 69.8 °F 55.4 °F 60% 30.06 in 6.2 mi NNW 8.1 mph - N/A   Scattered Clouds
4:00 AM 70 °F 56 °F 53% 30.06 in 9 mi NNW 11.5 mph - -   Partly Cloudy
4:00 AM 69.8 °F 57.2 °F 64% 30.06 in 6.2 mi NNW 11.5 mph - N/A   Scattered Clouds
5:00 AM 69.8 °F 55.4 °F 60% 30.07 in 6.2 mi NW 11.5 mph - N/A   Scattered Clouds
6:00 AM 69.8 °F 53.6 °F 56% 30.09 in 6.2 mi NNW 8.1 mph - N/A   Scattered Clouds
7:00 AM 70 °F 54 °F 48% 30.12 in 9 mi WNW 9.2 mph - -   Scattered Clouds
8:00 AM 71.6 °F 53.6 °F 53% 30.13 in 6.2 mi NW 10.4 mph - N/A   Partly Cloudy
9:00 AM 73.4 °F 51.8 °F 47% 30.15 in 6.2 mi NNW 8.1 mph - N/A   Partly Cloudy
10:00 AM 76 °F 55 °F 38% 30.17 in 9 mi North 8.1 mph - -   Scattered Clouds
10:00 AM 77.0 °F 55.4 °F 47% 30.16 in 6.2 mi North 8.1 mph - N/A   Partly Cloudy
11:00 AM 75.2 °F 53.6 °F 47% 30.16 in 6.2 mi NE 10.4 mph - N/A   Partly Cloudy
12:00 PM 71.6 °F 53.6 °F 53% 30.15 in 6.2 mi NNE 15.0 mph - N/A   Partly Cloudy
1:00 PM 77 °F 55 °F 37% 30.13 in 9 mi NNW 6.9 mph - -   Partly Cloudy
1:00 PM 77.0 °F 55.4 °F 47% 30.12 in 6.2 mi NNW 6.9 mph - N/A   Partly Cloudy
2:00 PM 73.4 °F 57.2 °F 57% 30.12 in 6.2 mi North 11.5 mph - N/A   Partly Cloudy
3:00 PM 73.4 °F 57.2 °F 57% 30.10 in 6.2 mi NNW 16.1 mph - N/A   Mostly Cloudy
4:00 PM 75 °F - % 29.95 in 9 mi North 12.7 mph - -  
4:00 PM 75.2 °F 57.2 °F 53% 30.10 in 6.2 mi North 12.7 mph - N/A   Scattered Clouds
5:00 PM 73.4 °F 53.6 °F 50% 30.10 in 6.2 mi North 17.3 mph - N/A   Mostly Cloudy
6:00 PM 71.6 °F 53.6 °F 53% 30.12 in 6.2 mi NNE 9.2 mph - N/A   Mostly Cloudy
7:00 PM 72 °F 58 °F 53% 30.13 in 9 mi North 9.2 mph - -   Mostly Cloudy
7:00 PM 71.6 °F 59.0 °F 64% 30.13 in 6.2 mi North 9.2 mph - N/A   Mostly Cloudy
8:00 PM 71.6 °F 53.6 °F 53% 30.14 in 6.2 mi NNE 13.8 mph - N/A   Mostly Cloudy
9:00 PM 71.6 °F 51.8 °F 50% 30.15 in 6.2 mi North 11.5 mph - N/A   Mostly Cloudy
10:00 PM 71 °F 56 °F 49% 30.16 in 9 mi NNE 13.8 mph - -   Mostly Cloudy
10:00 PM 71.6 °F 55.4 °F 57% 30.16 in 6.2 mi NNE 13.8 mph - N/A   Mostly Cloudy
11:00 PM 71.6 °F 55.4 °F 57% 30.17 in 6.2 mi NNE 11.5 mph - N/A   Mostly Cloudy